Tiempo cada hora Muonio

Hoy, 1 Diciembre, Martes

Tiempo Temperatura Precipitaciones Viento Presión Humedad
00:00 +20°C° 0 mm 1 mps 661 mmHg 88%
01:00 +19°C° 0 mm 1 mps 661 mmHg 90%
02:00 +19°C° 0 mm 1 mps 660 mmHg 93%
03:00 +19°C° 0 mm 1 mps 660 mmHg 93%
04:00 +18°C° 0 mm 1 mps 660 mmHg 94%
05:00 +18°C° 0 mm 1 mps 660 mmHg 94%
06:00 +21°C° 0 mm 1 mps 661 mmHg 85%
07:00 +23°C° 0 mm 1 mps 662 mmHg 75%
08:00 +25°C° 0 mm 1 mps 663 mmHg 64%
09:00 +27°C° 0.1 mm 1 mps 663 mmHg 58%
10:00 +29°C° 0.1 mm 1 mps 663 mmHg 52%
11:00 +30°C° 0.1 mm 1 mps 663 mmHg 46%
12:00 +29°C° 0.1 mm 1 mps 662 mmHg 51%
13:00 +28°C° 0.1 mm 1 mps 661 mmHg 55%
14:00 +28°C° 0 mm 2 mps 661 mmHg 56%
15:00 +28°C° 0 mm 2 mps 661 mmHg 57%
16:00 +27°C° 0 mm 1 mps 660 mmHg 59%
17:00 +27°C° 0 mm 1 mps 660 mmHg 61%
18:00 +25°C° 0 mm 1 mps 660 mmHg 66%
19:00 +22°C° 0 mm 0 mps 661 mmHg 71%
20:00 +20°C° 0 mm 0 mps 661 mmHg 77%
21:00 +20°C° 0 mm 0 mps 661 mmHg 79%
22:00 +21°C° 0 mm 1 mps 661 mmHg 82%
23:00 +21°C° 0 mm 1 mps 661 mmHg 84%

Mañana, 2 Diciembre, Miércoles

Tiempo Temperatura Precipitaciones Viento Presión Humedad
00:00 +20°C° 0 mm 1 mps 660 mmHg 85%
01:00 +20°C° 0 mm 1 mps 660 mmHg 86%
02:00 +19°C° 0 mm 1 mps 660 mmHg 87%
03:00 +19°C° 0 mm 1 mps 660 mmHg 88%
04:00 +19°C° 0 mm 1 mps 660 mmHg 90%
05:00 +18°C° 0 mm 1 mps 660 mmHg 91%
06:00 +21°C° 0 mm 1 mps 661 mmHg 81%
07:00 +23°C° 0 mm 1 mps 662 mmHg 72%
08:00 +25°C° 0 mm 1 mps 663 mmHg 63%
09:00 +27°C° 0 mm 1 mps 663 mmHg 55%
10:00 +29°C° 0 mm 2 mps 663 mmHg 47%
11:00 +31°C° 0 mm 2 mps 663 mmHg 39%
12:00 +31°C° 0 mm 2 mps 662 mmHg 39%
13:00 +31°C° 0 mm 2 mps 661 mmHg 39%
14:00 +31°C° 0 mm 2 mps 660 mmHg 39%
15:00 +30°C° 0 mm 2 mps 660 mmHg 44%
16:00 +29°C° 0 mm 2 mps 660 mmHg 48%
17:00 +27°C° 0 mm 1 mps 659 mmHg 53%
18:00 +26°C° 0 mm 1 mps 659 mmHg 58%
19:00 +24°C° 0 mm 1 mps 660 mmHg 64%
20:00 +22°C° 0 mm 1 mps 660 mmHg 69%
21:00 +22°C° 0 mm 1 mps 660 mmHg 71%
22:00 +21°C° 0 mm 1 mps 660 mmHg 73%
23:00 +20°C° 0 mm 2 mps 660 mmHg 75%

Pasado mañana, 3 Diciembre, Jueves

Tiempo Temperatura Precipitaciones Viento Presión Humedad
00:00 +19°C° 0 mm 2 mps 660 mmHg 76%
01:00 +19°C° 0 mm 2 mps 659 mmHg 77%
02:00 +19°C° 0 mm 2 mps 659 mmHg 78%
03:00 +18°C° 0 mm 2 mps 659 mmHg 81%
04:00 +18°C° 0 mm 2 mps 660 mmHg 83%
05:00 +19°C° 0 mm 1 mps 660 mmHg 86%
06:00 +20°C° 0 mm 2 mps 661 mmHg 78%
07:00 +23°C° 0 mm 2 mps 662 mmHg 69%
08:00 +25°C° 0 mm 2 mps 663 mmHg 60%
09:00 +27°C° 0 mm 2 mps 663 mmHg 52%
10:00 +29°C° 0 mm 2 mps 663 mmHg 45%
11:00 +31°C° 0 mm 3 mps 663 mmHg 37%
12:00 +31°C° 0 mm 3 mps 662 mmHg 37%
13:00 +31°C° 0 mm 3 mps 662 mmHg 38%
14:00 +31°C° 0 mm 3 mps 661 mmHg 38%
15:00 +30°C° 0 mm 3 mps 660 mmHg 43%
16:00 +28°C° 0 mm 2 mps 660 mmHg 48%
17:00 +27°C° 0 mm 2 mps 659 mmHg 52%
18:00 +25°C° 0 mm 1 mps 660 mmHg 59%
19:00 +24°C° 0 mm 1 mps 660 mmHg 65%
20:00 +20°C° 0 mm 0 mps 660 mmHg 71%
21:00 +20°C° 0 mm 0 mps 660 mmHg 72%
22:00 +21°C° 0 mm 1 mps 660 mmHg 74%
23:00 +21°C° 0 mm 1 mps 660 mmHg 75%

4 Diciembre, Viernes

Tiempo Temperatura Precipitaciones Viento Presión Humedad
00:00 +20°C° 0 mm 1 mps 660 mmHg 76%
01:00 +20°C° 0 mm 1 mps 660 mmHg 77%
02:00 +19°C° 0 mm 1 mps 659 mmHg 78%
03:00 +19°C° 0 mm 1 mps 660 mmHg 78%
04:00 +19°C° 0 mm 1 mps 660 mmHg 79%
05:00 +19°C° 0 mm 1 mps 660 mmHg 79%
06:00 +21°C° 0 mm 1 mps 661 mmHg 71%
07:00 +23°C° 0 mm 1 mps 662 mmHg 63%
08:00 +26°C° 0 mm 1 mps 663 mmHg 54%
09:00 +27°C° 0 mm 1 mps 663 mmHg 49%
10:00 +29°C° 0 mm 1 mps 663 mmHg 44%
11:00 +31°C° 0 mm 2 mps 664 mmHg 39%
12:00 +30°C° 0 mm 2 mps 663 mmHg 41%
13:00 +30°C° 0 mm 3 mps 662 mmHg 43%
14:00 +30°C° 0 mm 3 mps 661 mmHg 45%
15:00 +28°C° 0 mm 3 mps 661 mmHg 51%
16:00 +27°C° 0 mm 2 mps 661 mmHg 56%
17:00 +26°C° 0 mm 2 mps 661 mmHg 61%
18:00 +25°C° 0.3 mm 2 mps 661 mmHg 68%
19:00 +23°C° 0.3 mm 2 mps 661 mmHg 74%
20:00 +21°C° 0.3 mm 2 mps 661 mmHg 81%
21:00 +21°C° 0.1 mm 2 mps 661 mmHg 83%
22:00 +20°C° 0.1 mm 2 mps 661 mmHg 85%
23:00 +21°C° 0.1 mm 1 mps 661 mmHg 87%

5 Diciembre, Sábado

Tiempo Temperatura Precipitaciones Viento Presión Humedad
00:00 +19°C° 0.4 mm 2 mps 661 mmHg 88%
01:00 +19°C° 0.4 mm 2 mps 661 mmHg 90%
02:00 +19°C° 0.4 mm 2 mps 660 mmHg 91%
03:00 +20°C° 0.5 mm 1 mps 661 mmHg 91%
04:00 +20°C° 0.5 mm 1 mps 661 mmHg 91%
05:00 +20°C° 0.5 mm 1 mps 661 mmHg 91%
06:00 +21°C° 0.1 mm 1 mps 662 mmHg 88%
07:00 +22°C° 0.1 mm 1 mps 662 mmHg 85%
08:00 +22°C° 0.1 mm 1 mps 663 mmHg 82%
09:00 +23°C° 0.3 mm 1 mps 663 mmHg 77%
10:00 +25°C° 0.3 mm 2 mps 663 mmHg 71%
11:00 +26°C° 0.3 mm 2 mps 663 mmHg 65%
12:00 +26°C° 0.2 mm 2 mps 662 mmHg 63%
13:00 +27°C° 0.2 mm 3 mps 662 mmHg 62%
14:00 +27°C° 0.2 mm 3 mps 661 mmHg 60%
15:00 +26°C° 0.4 mm 3 mps 661 mmHg 67%
16:00 +25°C° 0.4 mm 3 mps 661 mmHg 74%
17:00 +23°C° 0.4 mm 2 mps 661 mmHg 81%
18:00 +23°C° 0 mm 2 mps 661 mmHg 83%
19:00 +21°C° 0 mm 2 mps 661 mmHg 84%
20:00 +20°C° 0 mm 2 mps 661 mmHg 86%
21:00 +20°C° 0.3 mm 2 mps 662 mmHg 88%
22:00 +20°C° 0.3 mm 2 mps 662 mmHg 89%
23:00 +20°C° 0.3 mm 2 mps 662 mmHg 91%

6 Diciembre, Domingo

Tiempo Temperatura Precipitaciones Viento Presión Humedad
00:00 +20°C° 0.7 mm 2 mps 661 mmHg 91%
01:00 +19°C° 0.7 mm 2 mps 661 mmHg 92%
02:00 +20°C° 0.7 mm 1 mps 661 mmHg 92%
03:00 +20°C° 0.6 mm 1 mps 661 mmHg 92%
04:00 +20°C° 0.6 mm 1 mps 661 mmHg 92%
05:00 +20°C° 0.6 mm 1 mps 661 mmHg 92%
06:00 +21°C° 0.3 mm 1 mps 662 mmHg 88%
07:00 +22°C° 0.3 mm 1 mps 662 mmHg 84%
08:00 +24°C° 0.3 mm 1 mps 663 mmHg 80%
09:00 +25°C° 0.6 mm 1 mps 663 mmHg 74%
10:00 +26°C° 0.6 mm 1 mps 663 mmHg 68%
11:00 +28°C° 0.6 mm 1 mps 663 mmHg 62%
12:00 +29°C° 0.1 mm 1 mps 663 mmHg 54%
13:00 +30°C° 0.1 mm 1 mps 662 mmHg 47%
14:00 +31°C° 0.1 mm 2 mps 662 mmHg 40%
15:00 +30°C° 0 mm 2 mps 661 mmHg 46%
16:00 +28°C° 0 mm 2 mps 661 mmHg 53%
17:00 +27°C° 0 mm 2 mps 661 mmHg 59%
18:00 +25°C° 0 mm 2 mps 661 mmHg 65%
19:00 +24°C° 0 mm 2 mps 661 mmHg 71%
20:00 +22°C° 0 mm 1 mps 660 mmHg 77%
21:00 +22°C° 0 mm 1 mps 661 mmHg 79%
22:00 +21°C° 0 mm 1 mps 661 mmHg 82%
23:00 +21°C° 0 mm 1 mps 661 mmHg 84%
Mostrar más

Necesitamos Su Consentimiento

Meteoprog y nuestros Proveedores de Servicios pueden almacenar y acceder a sus datos personales como cookies, identificadores de dispositivo u otras tecnologías similares de su dispositivo y procesar dichos datos para personalizar contenido y anuncios, además de ofrecer funciones de redes sociales y analizar el tráfico.

  • Almacenar y/o acceder a información en su dispositivo

    Se puede almacenar o acceder a cookies, identificadores de dispositivo u otra información de su dispositivo para los fines anteriormente indicados.

  • Anuncios y contenido personalizados, medición de anuncios y contenido, percepciones del público, y desarrollo de productos

    Los anuncios y el contenido pueden personalizarse en base a su perfil. Se pueden añadir más datos para personalizar mejor los anuncios y contenidos. Se puede medir el rendimiento de los anuncios y contenidos. Se puede obtener la percepción sobre el público que ha visto los anuncios y contenidos. Dichos datos pueden usarse para desarrollar o mejorar la experiencia del usuario, sistemas y software.

Al hacer clic en ‘Estoy De Acuerdo’ usted permitirá el uso de las cookies, identificadores de dispositivo, balizas web u otras tecnologías similares indicadas. Su configuración puede cambiarse desde el navegador de su dispositivo.

Para ciertos fines, los intereses legítimos pueden ser considerados por encima del consentimiento. Puede leer más sobre ello en nuestra Política de Privacidad y Cookies.